[[{"header":{"parameterUnit":"m.s-1","parameterCategory":1,"la1":30.2991,"la2":30.254,"lo1":-89.0895,"lo2":-89.0444,"dy":0.0017,"dx":0.0017,"nx":28,"ny":28,"refTime":"2025-12-06T09:00:00:Z","depth":0,"parameterNumber":2,"parameterNumberName":"U-component_of_WINDS"},"data":[0,0,0,0,0,0,0,0,0,0,0,0,0,0,0,0,0,0,0,0,0,0,0,0,0,0,0,0,0,0,0,0,0,0,0,0,0,0,0,0,0,0,0,0,0,0,0,0,0,0,0,0,0,0,0,0,0,0,-1.9625,-1.9625,0,-1.9666,-1.9666,-1.9666,-1.9607,-1.9605,-1.9603,-1.9601,-1.9642,-1.9645,-1.9648,0,0,0,0,0,0,0,0,0,0,0,0,0,-1.9494,-1.9497,-1.9625,-1.9625,-1.9626,-1.9665,-1.9666,-1.9667,-1.9607,-1.9605,-1.9602,-1.96,-1.9641,-1.9645,-1.9649,0,0,0,0,0,0,0,0,0,0,0,0,0,-1.9545,-1.9498,-1.9625,-1.9601,-1.9599,-1.9665,-1.9666,-1.9667,-1.9608,-1.9604,-1.9601,-1.9598,-1.964,-1.9645,-1.9649,-1.9741,0,0,-1.9663,-1.9665,0,0,0,0,0,0,0,0,-1.9542,-1.955,-1.9604,-1.9603,-1.9601,-1.9628,-1.9635,-1.9692,-1.9608,-1.9604,-1.96,-1.9597,-1.964,-1.9645,-1.9659,-1.9743,-1.9744,-1.9664,-1.9667,-1.9669,-1.967,0,0,0,0,0,0,0,-1.9539,-1.9547,-1.9641,-1.9605,-1.9603,-1.9588,-1.9591,-1.9646,-1.9639,-1.9605,-1.96,-1.9606,-1.9639,-1.9655,-1.966,-1.9745,-1.9664,-1.9668,-1.9671,-1.9672,-1.9904,-1.9908,0,0,0,0,0,0,-1.9538,-1.9545,-1.964,-1.9642,-1.9563,-1.9593,-1.9597,-1.9622,-1.9639,-1.9638,-1.9609,-1.9603,-1.9648,-1.9654,-1.9661,-1.9769,-1.9668,-1.9673,-1.9675,-1.9901,-1.9905,-1.9909,0,0,0,0,0,0,-1.9535,-1.9547,-1.9638,-1.9592,-1.9603,-1.9598,-1.9627,-1.9625,-1.9641,-1.9642,-1.964,-1.9626,-1.9646,-1.9654,-1.9721,-1.9769,-1.9675,-1.9679,-1.9897,-1.9902,-1.9907,-1.9986,0,0,0,0,0,0,-1.9532,-1.9546,-1.9582,-1.9594,-1.9605,-1.9698,-1.963,-1.9628,-1.9649,-1.9642,-1.9658,-1.9658,-1.9644,-1.9715,-1.9726,-1.9774,-1.9683,-1.9893,-1.9899,-1.9905,-1.9979,-1.9993,-2.0005,0,0,0,0,0,-1.9527,-1.9602,-1.9584,-1.9595,-1.9649,-1.9701,-1.9708,-1.9691,-1.9653,-1.9688,-1.9688,-1.9657,-1.9762,-1.9722,-1.9734,-1.9784,-1.989,-1.9898,-1.9905,-1.9973,-1.999,-2.0004,0,0,0,0,0,0,-1.9596,-1.9603,-1.9583,-1.9664,-1.9682,-1.9691,-1.9735,-1.971,-1.9739,-1.9732,-1.9709,-1.9714,-1.9785,-1.9791,-1.9746,-1.9873,-1.9819,-1.983,-1.9867,-1.9883,-1.9896,-1.9894,-1.9687,0,0,0,0,0,-1.9621,-1.9663,-1.9666,-1.9737,-1.9747,-1.974,-1.9761,-1.9747,-1.9765,-1.9773,-1.9778,-1.9796,-1.9833,-1.9858,-1.9892,-1.9979,-1.9981,-2.0019,-2.0032,-2.0043,-2.0053,-2.0098,-2.0115,-1.9934,-1.9934,-1.9934,0,0,-1.9672,-1.9681,-1.9709,-1.9751,-1.9764,-1.9807,-1.9747,-1.9795,-1.9827,-1.978,-1.9843,-1.9847,-1.9867,-1.9943,-1.9977,-1.9951,-2.0103,-2.0053,-2.0061,-2.0065,-2.0107,-2.0125,-2.014,-1.9939,-1.9938,-1.9937,0,0,-1.9788,-1.9799,-1.9859,-1.9873,-1.9892,-1.9886,-1.9901,-1.9913,-1.9914,-1.9977,-1.9942,-1.9979,-2.0044,-2.0059,-2.0075,-2.0194,-2.0167,-2.0206,-2.0275,-2.0319,-2.0333,-2.0346,-2.0389,-2.0404,-2.0215,-2.0215,-2.0216,0,-1.985,-1.9914,-1.9894,-1.9944,-1.9964,-1.9922,-1.9983,-1.9997,-2.0027,-2.0041,-2.001,-2.0089,-2.0099,-2.0179,-2.0208,-2.0222,-2.0238,-2.0205,-2.0333,-2.0345,-2.0357,-2.0397,-2.0413,-2.022,-2.022,-2.0219,-2.0219,0,-1.9989,-2.0033,-2.008,-2.0109,-2.0133,-2.0189,-2.0176,-2.0203,-2.0186,-2.0183,-2.0247,-2.0257,-2.0293,-2.031,-2.0294,-2.0387,-2.037,-2.0336,-2.0282,-2.0379,-2.0417,-2.0432,-2.0227,-2.0225,-2.0224,-2.0223,0,0,-2.0151,-2.0167,-2.0185,-2.0197,-2.0215,-2.0249,-2.0302,-2.0336,-2.0359,-2.0381,-2.0425,-2.0479,-2.0448,-2.0466,-2.0451,-2.049,-2.0584,-2.0451,-2.0451,-2.0476,-2.0687,-2.0712,-2.0731,-2.0565,-2.0568,-2.057,-2.0685,0,-2.0267,-2.0359,-2.0341,-2.0431,-2.0472,-2.0432,-2.0478,-2.0493,-2.0492,-2.0525,-2.0523,-2.0562,-2.0518,-2.0529,-2.0565,-2.0565,-2.0626,-2.0556,-2.0605,-2.0607,-2.0603,-2.075,-2.0778,-2.0886,-2.07,-2.0702,-2.0704,0,-2.0415,-2.0442,-2.0535,-2.0545,-2.0562,-2.0604,-2.0633,-2.0666,-2.0682,-2.0678,-2.0698,-2.0674,-2.0726,-2.0671,-2.0742,-2.0694,-2.0713,-2.0716,-2.0719,-2.0724,-2.0663,-2.076,-2.0921,-2.0937,-2.0727,-2.0725,-2.0724,0,-2.0525,-2.0584,-2.0647,-2.0659,-2.0672,-2.0702,-2.0709,-2.0722,-2.0744,-2.0769,-2.0782,-2.0813,-2.0831,-2.0855,-2.084,-2.0801,-2.0914,-2.0857,-2.0912,-2.0912,-2.0939,-2.0937,-2.1105,-2.095,-2.0949,-2.0949,-2.0949,0,-2.0657,-2.0716,-2.0696,-2.0736,-2.08,-2.0779,-2.0843,-2.0845,-2.0857,-2.0895,-2.0862,-2.0899,-2.0877,-2.0912,-2.0901,-2.0961,-2.0969,-2.0967,-2.0963,-2.0971,-2.0971,-2.0983,-2.0976,-2.0953,-2.0952,-2.0951,-2.0951,0,-2.0791,-2.078,-2.0847,-2.0853,-2.0856,-2.0904,-2.0909,-2.0945,-2.094,-2.0989,-2.0999,-2.0991,-2.103,-2.1018,-2.106,-2.1052,-2.1129,-2.1116,-2.1124,-2.1121,-2.1177,-2.1172,-2.136,-2.1383,-2.1211,-2.1213,-2.1214,0,-2.0876,-2.0921,-2.0932,-2.0955,-2.0964,-2.1002,-2.1023,-2.1003,-2.1027,-2.1048,-2.1081,-2.1117,-2.1145,-2.1209,-2.1207,-2.1239,-2.1226,-2.129,-2.1231,-2.1236,-2.1228,-2.1226,-2.123,-2.1302,-2.1304,-2.1306,-2.1307,0,-2.1029,-2.1021,-2.1053,-2.1084,-2.111,-2.1132,-2.1152,-2.1173,-2.1154,-2.1182,-2.1221,-2.1243,-2.1285,-2.1321,-2.135,-2.1356,-2.1329,-2.1325,-2.1339,-2.1348,-2.1351,-2.135,-2.1157,-2.1321,-2.132,-2.1319,-2.1318,-2.1317,-2.1142,-2.1179,-2.1193,-2.1229,-2.1241,-2.126,-2.1294,-2.1293,-2.1326,-2.1359,-2.1344,-2.139,-2.1403,-2.1438,-2.1448,-2.1483,-2.1459,-2.148,-2.1485,-2.1491,-2.1498,-2.1344,-2.1488,-2.1488,-2.1487,-2.1487,-2.1487,0,-2.1293,-2.13,-2.1333,-2.1362,-2.139,-2.1361,-2.138,-2.1406,-2.1447,-2.1461,-2.1489,-2.1534,-2.1568,-2.1568,-2.16,-2.1628,-2.1616,-2.1637,-2.1635,-2.1637,-2.1518,-2.1503,-2.1646,-2.1646,-2.1646,-2.1646,-2.1646,-2.1646,-2.1376,-2.1437,-2.1431,-2.1498,-2.1503,-2.1547,-2.1561,-2.1578,-2.159,-2.1641,-2.167,-2.1669,-2.1677,-2.1709,-2.1739,-2.1738,-2.1752,-2.1778,-2.1772,-2.1661,-2.1645,-2.163,-2.1616,-2.1781,-2.1781,-2.1888,-2.1889,-2.189]},{"header":{"parameterUnit":"m.s-1","parameterCategory":1,"la1":30.2991,"la2":30.254,"lo1":-89.0895,"lo2":-89.0444,"dy":0.0017,"dx":0.0017,"nx":28,"ny":28,"refTime":"2025-12-06T09:00:00:Z","depth":0,"parameterNumber":3,"parameterNumberName":"V-component_of_WINDS"},"data":[0,0,0,0,0,0,0,0,0,0,0,0,0,0,0,0,0,0,0,0,0,0,0,0,0,0,0,0,0,0,0,0,0,0,0,0,0,0,0,0,0,0,0,0,0,0,0,0,0,0,0,0,0,0,0,0,0,0,-4.1004,-4.1004,0,-4.104,-4.1041,-4.1041,-4.0984,-4.0982,-4.098,-4.0978,-4.1012,-4.1015,-4.1017,0,0,0,0,0,0,0,0,0,0,0,0,0,-4.0881,-4.0884,-4.1004,-4.1004,-4.1005,-4.104,-4.1041,-4.1041,-4.0985,-4.0982,-4.098,-4.0978,-4.1011,-4.1014,-4.1018,0,0,0,0,0,0,0,0,0,0,0,0,0,-4.0928,-4.0885,-4.1004,-4.0981,-4.0979,-4.104,-4.1041,-4.1041,-4.0985,-4.0982,-4.0979,-4.0976,-4.101,-4.1014,-4.1018,-4.1102,0,0,-4.1031,-4.1032,0,0,0,0,0,0,0,0,-4.0925,-4.0932,-4.0984,-4.0983,-4.0981,-4.1005,-4.101,-4.1062,-4.0986,-4.0983,-4.0978,-4.0975,-4.1012,-4.1016,-4.1029,-4.1103,-4.1105,-4.1031,-4.1033,-4.1035,-4.1036,0,0,0,0,0,0,0,-4.0922,-4.0931,-4.1018,-4.0985,-4.0983,-4.0968,-4.0971,-4.1019,-4.1013,-4.0983,-4.0979,-4.0984,-4.101,-4.1025,-4.1029,-4.1105,-4.1031,-4.1034,-4.1037,-4.1039,-4.125,-4.1253,0,0,0,0,0,0,-4.0922,-4.0928,-4.1017,-4.1019,-4.0945,-4.0972,-4.0976,-4.1,-4.1013,-4.1012,-4.0987,-4.0981,-4.1019,-4.1024,-4.103,-4.1129,-4.1035,-4.1039,-4.1041,-4.1247,-4.1251,-4.1254,0,0,0,0,0,0,-4.092,-4.0931,-4.1016,-4.0973,-4.0982,-4.0977,-4.1005,-4.1002,-4.1017,-4.1015,-4.1014,-4.1003,-4.1017,-4.1024,-4.1085,-4.1129,-4.1041,-4.1044,-4.1243,-4.1248,-4.1253,-4.1328,0,0,0,0,0,0,-4.0917,-4.093,-4.0963,-4.0974,-4.0985,-4.1071,-4.1008,-4.1005,-4.1024,-4.1018,-4.103,-4.1029,-4.1015,-4.1079,-4.1089,-4.1133,-4.1048,-4.1239,-4.1245,-4.1251,-4.1321,-4.1334,-4.1346,0,0,0,0,0,-4.0913,-4.0982,-4.0965,-4.0976,-4.1026,-4.1074,-4.108,-4.1064,-4.1028,-4.1061,-4.1059,-4.1029,-4.1123,-4.1086,-4.1096,-4.1143,-4.1236,-4.1244,-4.1251,-4.1316,-4.1332,-4.1345,0,0,0,0,0,0,-4.0975,-4.0983,-4.0964,-4.104,-4.1057,-4.1064,-4.1104,-4.1081,-4.1108,-4.11,-4.1078,-4.1081,-4.1146,-4.115,-4.1108,-4.1224,-4.1173,-4.1183,-4.1219,-4.1235,-4.1247,-4.1244,-4.1051,0,0,0,0,0,-4.0998,-4.1038,-4.1042,-4.1108,-4.1117,-4.111,-4.113,-4.1116,-4.1132,-4.1138,-4.1142,-4.1158,-4.119,-4.1212,-4.1243,-4.1321,-4.1323,-4.1358,-4.1371,-4.1381,-4.1389,-4.1431,-4.1447,-4.1278,-4.1278,-4.1278,0,0,-4.1045,-4.1054,-4.108,-4.1121,-4.1132,-4.1172,-4.1116,-4.1161,-4.119,-4.1145,-4.1202,-4.1205,-4.1221,-4.1291,-4.1322,-4.1297,-4.1436,-4.139,-4.1398,-4.1401,-4.144,-4.1456,-4.147,-4.1283,-4.1282,-4.1281,0,0,-4.1152,-4.1163,-4.1219,-4.1232,-4.1251,-4.1245,-4.1259,-4.127,-4.1271,-4.1328,-4.1295,-4.1329,-4.1386,-4.1399,-4.1413,-4.1524,-4.1497,-4.1534,-4.1599,-4.1639,-4.1653,-4.1664,-4.1704,-4.1718,-4.1543,-4.1543,-4.1543,0,-4.1208,-4.1269,-4.1251,-4.1299,-4.1317,-4.1279,-4.1335,-4.1348,-4.1375,-4.1388,-4.1359,-4.143,-4.1438,-4.151,-4.1538,-4.155,-4.1564,-4.1533,-4.1652,-4.1664,-4.1674,-4.1712,-4.1727,-4.1547,-4.1547,-4.1547,-4.1546,0,-4.1336,-4.1379,-4.1422,-4.1451,-4.1473,-4.1525,-4.1514,-4.1539,-4.1523,-4.152,-4.1579,-4.1587,-4.1618,-4.1634,-4.1618,-4.1704,-4.1688,-4.1656,-4.1605,-4.1695,-4.173,-4.1745,-4.1554,-4.1552,-4.1551,-4.155,0,0,-4.1484,-4.1502,-4.1519,-4.1531,-4.1549,-4.158,-4.1629,-4.1661,-4.1683,-4.1703,-4.1743,-4.1792,-4.1763,-4.1779,-4.1764,-4.18,-4.1888,-4.1764,-4.1764,-4.1787,-4.1982,-4.2007,-4.2024,-4.1869,-4.1872,-4.1874,-4.1981,0,-4.159,-4.1678,-4.1663,-4.1747,-4.1785,-4.1749,-4.1792,-4.1807,-4.1805,-4.1837,-4.1834,-4.1869,-4.1828,-4.1838,-4.1871,-4.187,-4.1927,-4.1862,-4.1906,-4.1908,-4.1904,-4.2042,-4.2067,-4.2168,-4.1995,-4.1997,-4.1999,0,-4.1726,-4.1753,-4.1841,-4.1852,-4.1868,-4.1907,-4.1935,-4.1966,-4.1981,-4.1977,-4.1995,-4.1974,-4.2021,-4.1969,-4.2034,-4.1991,-4.2008,-4.201,-4.2013,-4.2017,-4.1959,-4.2049,-4.22,-4.2215,-4.202,-4.2018,-4.2017,0,-4.1826,-4.1883,-4.1943,-4.1954,-4.1969,-4.1998,-4.2005,-4.2017,-4.2037,-4.2061,-4.2074,-4.2102,-4.2118,-4.214,-4.2126,-4.2089,-4.2193,-4.214,-4.2191,-4.2192,-4.2215,-4.2214,-4.237,-4.2226,-4.2225,-4.2225,-4.2225,0,-4.1946,-4.2002,-4.1988,-4.2025,-4.2085,-4.2067,-4.2127,-4.213,-4.2141,-4.2177,-4.2147,-4.2181,-4.2161,-4.2193,-4.2182,-4.2238,-4.2245,-4.2242,-4.2239,-4.2245,-4.2246,-4.2257,-4.2249,-4.2229,-4.2228,-4.2227,-4.2227,0,-4.2067,-4.206,-4.2124,-4.2133,-4.2136,-4.2181,-4.2188,-4.2221,-4.2217,-4.2263,-4.2273,-4.2266,-4.2303,-4.2291,-4.233,-4.2322,-4.2393,-4.238,-4.2389,-4.2386,-4.2437,-4.2433,-4.2606,-4.2628,-4.2469,-4.2471,-4.2472,0,-4.2145,-4.2187,-4.2201,-4.2224,-4.2234,-4.227,-4.2291,-4.2274,-4.2297,-4.2317,-4.2349,-4.2382,-4.2409,-4.2468,-4.2466,-4.2495,-4.2483,-4.2542,-4.2487,-4.2493,-4.2484,-4.2482,-4.2486,-4.2553,-4.2555,-4.2556,-4.2558,0,-4.2284,-4.2278,-4.231,-4.2341,-4.2366,-4.2389,-4.2409,-4.2429,-4.2413,-4.244,-4.2477,-4.2498,-4.2538,-4.2571,-4.2598,-4.2603,-4.2578,-4.2575,-4.2588,-4.2595,-4.2599,-4.2598,-4.2419,-4.2571,-4.257,-4.2569,-4.2568,-4.2567,-4.2386,-4.2421,-4.2437,-4.2473,-4.2487,-4.2506,-4.2539,-4.2539,-4.2571,-4.2603,-4.259,-4.2633,-4.2647,-4.268,-4.2689,-4.2722,-4.2699,-4.2718,-4.2723,-4.2729,-4.2735,-4.2593,-4.2726,-4.2726,-4.2726,-4.2725,-4.2725,0,-4.2523,-4.2532,-4.2565,-4.2595,-4.2623,-4.2597,-4.2618,-4.2643,-4.2682,-4.2697,-4.2724,-4.2767,-4.2799,-4.28,-4.283,-4.2856,-4.2845,-4.2864,-4.2862,-4.2864,-4.2754,-4.274,-4.2873,-4.2873,-4.2873,-4.2873,-4.2873,-4.2873,-4.2598,-4.2657,-4.2654,-4.2719,-4.2726,-4.2769,-4.2783,-4.28,-4.2813,-4.2863,-4.289,-4.2891,-4.29,-4.293,-4.2959,-4.2958,-4.297,-4.2995,-4.2989,-4.2886,-4.2872,-4.2858,-4.2844,-4.2997,-4.2997,-4.3097,-4.3098,-4.3098]}]]